This is the latest recevied weather packets stored in our database for station/object N5CSU. If no packets are shown the sender has not sent any weather packets the latest 10 day(s).
| Time | Temp. | Humidity | Pressure | Rain* | Wind** | Luminosity | Snow |
|---|---|---|---|---|---|---|---|
| 1777559891 | 16.67° C | 88% | 1015.1 hPa | 0 mm | - | 4 W/m² | - |
| 1777559585 | 16.67° C | 87% | 1014.9 hPa | 0 mm | - | 4 W/m² | - |
| 1777559284 | 16.67° C | 87% | 1014.8 hPa | 0 mm | - | 5 W/m² | - |
| 1777558979 | 16.67° C | 87% | 1014.6 hPa | 0 mm | - | 9 W/m² | - |
| 1777558675 | 16.67° C | 88% | 1014.5 hPa | 0 mm | - | 6 W/m² | - |
| 1777558370 | 16.67° C | 88% | 1014.5 hPa | 0 mm | - | 6 W/m² | - |
| 1777558067 | 16.67° C | 88% | 1014.4 hPa | 0 mm | - | 5 W/m² | - |
| 1777557764 | 16.67° C | 88% | 1014.3 hPa | 0 mm | - | 6 W/m² | - |
| 1777557460 | 16.67° C | 89% | 1014.1 hPa | 0 mm | - | 6 W/m² | - |
| 1777557157 | 16.67° C | 89% | 1014.3 hPa | 0 mm | - | 6 W/m² | - |
| 1777556852 | 16.67° C | 88% | 1014.2 hPa | 0 mm | - | 7 W/m² | - |
| 1777556549 | 16.67° C | 89% | 1014.4 hPa | 0 mm | - | 6 W/m² | - |
| 1777556248 | 16.67° C | 88% | 1014.4 hPa | 0 mm | - | 7 W/m² | - |
| 1777555945 | 16.67° C | 89% | 1014.3 hPa | 0 mm | - | 7 W/m² | - |
| 1777555640 | 16.67° C | 89% | 1014.2 hPa | 0 mm | - | 9 W/m² | - |
| 1777555337 | 16.67° C | 89% | 1014.3 hPa | 0 mm | - | 8 W/m² | - |
| 1777555034 | 16.67° C | 89% | 1014 hPa | 0 mm | - | 8 W/m² | - |
| 1777554731 | 16.67° C | 89% | 1014 hPa | 0 mm | - | 7 W/m² | - |
| 1777554428 | 16.11° C | 89% | 1014 hPa | 0 mm | - | 6 W/m² | - |
| 1777554124 | 16.11° C | 89% | 1014.1 hPa | 0 mm | - | 6 W/m² | - |
| 1777553821 | 16.11° C | 89% | 1014.1 hPa | 0 mm | - | 5 W/m² | - |
| 1777553518 | 16.11° C | 89% | 1014.5 hPa | 0 mm | - | 6 W/m² | - |
| 1777553213 | 16.11° C | 89% | 1014.4 hPa | 0 mm | - | 5 W/m² | - |
| 1777552909 | 16.11° C | 89% | 1014.3 hPa | 0 mm | - | 6 W/m² | - |
| 1777552604 | 16.11° C | 89% | 1014.2 hPa | 0 mm | - | 7 W/m² | - |
* Rain latest hour (hover to see other rain measurements)
** Current wind speed in m/s (hover to see current wind gust speed)